{"data":{"norad_id":68243,"epoch":"2026-05-25T03:29:11.533632Z","epoch_age_seconds":72553,"freshness":"FRESH","line1":"1 68243U 26054M   26145.14527238  .00023818  00000+0  71383-3 0  9996","line2":"2 68243  53.1605 294.8428 0001378 111.6811 248.4338 15.34399260 10791","mean_motion":15.3439926,"eccentricity":0.0001378,"inclination_deg":53.1605,"raan_deg":294.8428,"arg_perigee_deg":111.6811,"mean_anomaly_deg":248.4338,"bstar":0.00071383,"rev_number":1079,"period_min":93.847803341615,"perigee_km":461.76277155575,"apogee_km":463.64810773212,"semimajor_km":6840.8424396439,"source":"CELESTRAK","updated_at":"2026-05-25T13:38:21.885168Z"}}